Starlink 34526

operational
NORAD ID: 64481 Int'l Des: 2025-133 Owner: SPXS Country: US Constellation: starlink
LEOCIRCULAR

About Starlink 34526

Description loading...

Live Position

Loading 3D Globe...

Upcoming Passes

Altitude History

Altitude vs Time

uPlot chart will show altitude changes over time

Two-Line Element Set

1 64481U 25133K 26101.88236249 .00015446 00000-0 53247-3 0 9993
2 64481 53.1598 322.3885 0001375 89.8789 270.2370 15.30204050 46160
Epoch: Apr 11, 2026 • Age: 9 hours

Current Status

Altitude 489.6 km
Velocity 7.62 km/s
Sub-Earth Point -41.16°S, 15.63°W
Launch Date Jun 23, 2025
Age 0.8 years
Type internet

Technical Details

Classification Payload
Mass 575.00 kg
Dry Mass 530.00 kg
Total Mass 575.00 kg
Length 0.30 m
Diameter 4.10 m
Span 29.00 m
Shape Box + pan
Manufacturer SPXS
Bus Type Starlink V2MO
Phase Status In Orbit
Owner/State SPXS/US

Large Constellations

Loading constellations...